Flag for Belgium Weather past 2 weeks in Brussels, Belgium

Now
46 °F

Clear.


Feels Like: 43 °F
Forecast: 41 / 61 °F
Wind: 7 mph from Northeast

Location: Brussels National Airport

Current Time: Apr 22, 2015 at 12:11:41 AM

Latest Report: Apr 21, 2015 at 10:50 PM


Visibility: 10 mi

Pressure: 30.45 "Hg

Humidity: 87%

Dew point: 43 °F

Location of BrusselsLocation

Historic Weather in Brussels — Graph

°F

Brussels temperature yesterday

Maximum temperature yesterday: 68 °F (at 4:50 PM)
Minimum temperature yesterday: 41 °F (at 6:20 AM)
Average temperature yesterday: 53 °F

Past Weeks' High & Low Weather Summary

 TemperatureHumidityPressure
High75 °F (Apr 15, 3:50 PM)100% (Apr 8, 6:50 AM)30.66 "Hg (Apr 8, 6:50 AM)
Low32 °F (Apr 7, 5:20 AM)27% (Apr 10, 4:50 PM)29.92 "Hg (Apr 16, 5:50 PM)
Average51 °F67%30.27 "Hg
* Reported Apr 6 10:20 PM — Apr 21 10:50 PM, Brussels, Weather by CustomWeather, © 2015

Note: Actual official high and low records may vary slightly from our data, if they occured in-between our weather recording intervals... More about our weather records

Advertising

Brussels weather history for previous 24 hours

 ConditionsComfort  
Time TempWeatherWind HumidityBarometerVisibility
10:50 PM
Tue, Apr 21
46 °FClear.7 mph87%30.45 "Hg10 mi
10:20 PM50 °FClear.8 mph76%30.45 "Hg10 mi
9:50 PM52 °FClear.8 mph77%30.45 "Hg10 mi
9:20 PM54 °FSunny.9 mph67%30.45 "Hg10 mi
8:50 PM55 °FSunny.8 mph67%30.45 "Hg10 mi
8:20 PM57 °FSunny.9 mph63%30.42 "Hg10 mi
7:50 PM61 °FSunny.7 mph42%30.42 "Hg10 mi
7:20 PM63 °FSunny.9 mph39%30.42 "Hg10 mi
6:50 PM64 °FSunny.13 mph37%30.42 "Hg10 mi
6:20 PM64 °FSunny.10 mph40%30.42 "Hg10 mi
5:50 PM66 °FSunny.13 mph43%30.42 "Hg10 mi
5:20 PM66 °FPassing clouds.10 mph40%30.42 "HgN/A
4:50 PM68 °FPassing clouds.8 mph43%30.45 "HgN/A
4:20 PM66 °FPassing clouds.8 mph40%30.45 "HgN/A
3:50 PM66 °FPassing clouds.6 mph40%30.45 "HgN/A
3:20 PM66 °FPassing clouds.5 mph43%30.45 "HgN/A
2:50 PM64 °FPassing clouds.3 mph46%30.45 "HgN/A
2:20 PM64 °FSunny.No wind49%30.48 "Hg10 mi
1:50 PM63 °FPassing clouds.5 mph45%30.48 "HgN/A
1:20 PM61 °FPassing clouds.5 mph48%30.48 "HgN/A
12:50 PM59 °FSunny.3 mph51%30.48 "Hg10 mi
12:20 PM59 °FPassing clouds.5 mph55%30.48 "HgN/A
11:50 AM57 °FPassing clouds.5 mph59%30.48 "HgN/A
11:20 AM55 °FSunny.2 mph67%30.48 "Hg10 mi
10:50 AM54 °FSunny.1 mph72%30.48 "Hg10 mi
10:20 AM50 °FSunny.2 mph71%30.48 "Hg10 mi
9:50 AM48 °FSunny.2 mph76%30.48 "Hg10 mi
9:20 AM46 °FPassing clouds.3 mph82%30.48 "HgN/A
8:50 AM45 °FSunny.3 mph87%30.45 "Hg10 mi
8:20 AM43 °FSunny.3 mph93%30.45 "Hg10 mi
7:50 AM43 °FPassing clouds.3 mph87%30.45 "HgN/A
7:20 AM43 °FPassing clouds.3 mph87%30.45 "HgN/A
6:50 AM41 °FClear.2 mph87%30.42 "Hg10 mi
6:20 AM41 °FClear.1 mph87%30.42 "Hg10 mi
5:50 AM43 °FClear.2 mph87%30.42 "Hg10 mi
5:20 AM43 °FClear.3 mph81%30.42 "Hg10 mi
4:50 AM43 °FClear.3 mph81%30.45 "Hg10 mi
4:20 AM45 °FClear.3 mph76%30.42 "Hg10 mi
3:50 AM43 °FClear.3 mph87%30.42 "Hg10 mi
3:20 AM45 °FClear.2 mph81%30.42 "Hg10 mi
2:50 AM45 °FClear.1 mph87%30.42 "Hg10 mi
2:20 AM46 °FClear.3 mph82%30.42 "Hg10 mi
1:50 AM46 °FClear.3 mph82%30.42 "Hg10 mi
1:20 AM46 °FClear.5 mph82%30.42 "Hg10 mi
12:50 AM46 °FClear.5 mph76%30.39 "Hg10 mi
12:20 AM48 °FPassing clouds.3 mph71%30.39 "HgN/A
Weather by CustomWeather, © 2015

See weather overviewHow to use our weather pages